F4IED-13 Weather Reports


time (UTC)temp
C
wind
direction
speed
KPH
gust
KPH
rain 1hr
cm
rain 24hr
cm
rain mn
cm
humidity
%
barometer
mb
20260507122635 15 90 1.6 4.8 0.00 0.00 0.00 61 1014.4
20260507121653 15 21 3.2 6.4 0.00 0.00 0.00 62 1014.4
20260507120632 16 357 4.8 11.3 0.00 0.00 0.00 63 1014.4
20260507115629 15 20 6.4 12.9 0.00 0.00 0.00 65 1014.4
20260507114626 15 354 4.8 9.7 0.00 0.00 0.00 64 1014.4
20260507113624 15 11 3.2 6.4 0.00 0.00 0.00 65 1014.4
20260507112622 15 39 3.2 11.3 0.00 0.00 0.00 69 1014.6
20260507111622 14 240 3.2 6.4 0.00 0.00 0.00 71 1014.6
20260507110659 13 351 4.8 11.3 0.00 0.00 0.00 72 1014.6
20260507105617 13 24 1.6 6.4 0.00 0.00 0.00 74 1014.7
20260507104614 13 26 3.2 9.7 0.00 0.00 0.00 74 1014.7
20260507103632 13 9 3.2 6.4 0.00 0.00 0.00 74 1014.7
20260507102610 13 221 1.6 3.2 0.00 0.00 0.00 73 1014.7
20260507101608 13 123 1.6 3.2 0.00 0.00 0.00 75 1014.7
20260507100606 13 2 3.2 8.0 0.00 0.00 0.00 75 1014.8
20260507095604 13 25 3.2 9.7 0.00 0.00 0.00 76 1014.6
20260507094602 13 22 4.8 9.7 0.00 0.00 0.00 77 1014.7
20260507093559 13 325 3.2 9.7 0.00 0.00 0.00 77 1014.6
20260507092558 12 225 3.2 6.4 0.00 0.00 0.00 79 1014.5
20260507091556 12 315 1.6 6.4 0.00 0.00 0.00 80 1014.4
20260507090555 12 52 1.6 6.4 0.00 0.00 0.00 81 1014.4
20260507085552 11 162 1.6 4.8 0.00 0.00 0.00 82 1014.4
20260507084549 11 215 1.6 4.8 0.00 0.00 0.00 82 1014.4
20260507083547 11 33 1.6 6.4 0.00 0.00 0.00 82 1014.5
20260507082545 11 17 3.2 6.4 0.00 0.00 0.00 83 1014.4
20260507081543 11 8 1.6 6.4 0.00 0.00 0.00 84 1014.4
20260507080541 11 23 1.6 3.2 0.00 0.00 0.00 85 1014.4
20260507075540 10 25 3.2 6.4 0.00 0.00 0.00 86 1014.4
20260507074537 10 21 1.6 4.8 0.00 0.00 0.00 87 1014.4
20260507073535 10 90 1.6 3.2 0.00 0.00 0.00 88 1014.4
20260507072534 10 37 1.6 3.2 0.00 0.00 0.00 88 1014.3
20260507071531 10 7 1.6 3.2 0.00 0.00 0.00 88 1014.3
20260507070529 9 10 3.2 4.8 0.00 0.00 0.00 89 1014.2
20260507065527 9 32 3.2 4.8 0.00 0.00 0.00 89 1014.2
20260507064546 8 17 3.2 4.8 0.00 0.00 0.00 89 1014.2
20260507063522 8 344 1.6 4.8 0.00 0.00 0.00 89 1014.1
20260507062521 8 0 1.6 6.4 0.00 0.00 0.00 89 1014.1
20260507061519 8 349 3.2 6.4 0.00 0.00 0.00 89 1014.0
20260507060517 8 352 3.2 8.0 0.00 0.00 0.00 88 1014.0
20260507055555 8 345 3.2 8.0 0.00 0.00 0.00 88 1013.9
20260507054513 8 338 3.2 6.4 0.00 0.00 0.00 88 1013.9
20260507053511 8 343 3.2 6.4 0.00 0.00 0.00 88 1013.8
20260507052509 8 335 3.2 8.0 0.00 0.00 0.00 88 1013.7
20260507051508 8 337 3.2 6.4 0.00 0.00 0.00 88 1013.6
20260507050506 8 324 1.6 6.4 0.00 0.00 0.00 88 1013.6
20260507045503 8 340 1.6 6.4 0.00 0.00 0.00 88 1013.5
20260507044501 8 336 1.6 4.8 0.00 0.00 0.00 88 1013.4
20260507043458 8 326 1.6 3.2 0.00 0.00 0.00 88 1013.3
20260507042456 8 329 1.6 4.8 0.00 0.00 0.00 87 1013.3
20260507041454 8 341 1.6 4.8 0.00 0.00 0.00 87 1013.2
20260507040452 8 335 3.2 6.4 0.00 0.00 0.00 87 1013.3
20260507035450 8 328 1.6 6.4 0.00 0.00 0.00 87 1013.2
20260507034449 8 330 3.2 6.4 0.00 0.00 0.00 87 1013.1
20260507033446 8 337 3.2 4.8 0.00 0.00 0.00 87 1013.1
20260507032444 8 336 1.6 6.4 0.00 0.00 0.00 87 1013.1
20260507031443 8 343 3.2 8.0 0.00 0.00 0.00 87 1013.2
20260507030440 8 338 3.2 6.4 0.00 0.00 0.00 87 1013.2
20260507025438 8 321 3.2 6.4 0.00 0.00 0.00 87 1013.2
20260507024436 8 320 12.9 22.5 0.00 0.00 0.00 87 1013.2
20260507023434 -17 0.0 0.0 0.00 0.00 0.00
20260507022432 -17 0.0 0.0 0.00 0.00 0.00
20260507021450 -17 0.0 0.0 0.00 0.00 0.00
20260507020427 -17 0.0 0.0 0.00 0.00 0.00
20260507015426 -17 0.0 0.0 0.00 0.00 0.00
20260507014424 -17 0.0 0.0 0.00 0.00 0.00
20260507013443 -17 0.0 0.0 0.00 0.00 0.00
20260507012420 -17 0.0 0.0 0.00 0.00 0.00
20260507011418 -17 0.0 0.0 0.00 0.00 0.00
20260507010436 -17 0.0 0.0 0.00 0.00 0.00
20260507005414 -17 0.0 0.0 0.00 0.00 0.00
20260507004452 -17 0.0 0.0 0.00 0.00 0.00
20260507003410 -17 0.0 0.0 0.00 0.00 0.00
20260507002408 -17 0.0 0.0 0.00 0.00 0.00
20260507001405 -17 0.0 0.0 0.00 0.00 0.00
20260507000424 -17 0.0 0.0 0.00 0.00 0.00
20260506235403 -17 0.0 0.0 0.00 0.00 0.00
20260506234400 -17 0.0 0.0 0.00 0.00 0.00
20260506233438 -17 0.0 0.0 0.00 0.00 0.00
20260506232356 -17 0.0 0.0 0.00 0.00 0.00
20260506231353 -17 0.0 0.0 0.00 0.00 0.00
20260506230412 -17 0.0 0.0 0.00 0.00 0.00
20260506225349 -17 0.0 0.0 0.00 0.00 0.00
20260506224347 -17 0.0 0.0 0.00 0.00 0.00
20260506223345 -17 0.0 0.0 0.00 0.00 0.00
20260506222342 -17 0.0 0.0 0.00 0.00 0.00
20260506221400 -17 0.0 0.0 0.00 0.00 0.00
20260506220338 -17 0.0 0.0 0.00 0.00 0.00
20260506215336 -17 0.0 0.0 0.00 0.00 0.00
20260506214355 -17 0.0 0.0 0.00 0.00 0.00
20260506213332 -17 0.0 0.0 0.00 0.00 0.00
20260506212330 -17 0.0 0.0 0.00 0.00 0.00
20260506211328 -17 0.0 0.0 0.00 0.00 0.00
20260506210325 -17 0.0 0.0 0.00 0.00 0.00
20260506205322 -17 0.0 0.0 0.00 0.00 0.00
20260506204320 -17 0.0 0.0 0.00 0.00 0.00
20260506203318 -17 0.0 0.0 0.00 0.00 0.00
20260506202316 -17 0.0 0.0 0.00 0.00 0.00
20260506201354 -17 0.0 0.0 0.00 0.00 0.00
20260506200312 -17 0.0 0.0 0.00 0.00 0.00
20260506195331 -17 0.0 0.0 0.00 0.00 0.00
20260506194308 -17 0.0 0.0 0.00 0.00 0.00
20260506193306 -17 0.0 0.0 0.00 0.00 0.00
20260506192324 -17 0.0 0.0 0.00 0.00 0.00
20260506191302 -17 0.0 0.0 0.00 0.00 0.00
20260506190259 -17 0.0 0.0 0.00 0.00 0.00
20260506185319 -17 0.0 0.0 0.00 0.00 0.00
20260506184256 -17 0.0 0.0 0.00 0.00 0.00
20260506183253 -17 0.0 0.0 0.00 0.00 0.00
20260506182310 -17 0.0 0.0 0.00 0.00 0.00
20260506181248 -17 0.0 0.0 0.00 0.00 0.00
20260506180246 -17 0.0 0.0 0.00 0.00 0.00
20260506175244 -17 0.0 0.0 0.00 0.00 0.00
20260506174242 -17 0.0 0.0 0.00 0.00 0.00
20260506173239 -17 0.0 0.0 0.00 0.00 0.00
20260506172237 -17 0.0 0.0 0.00 0.00 0.00
20260506171256 -17 0.0 0.0 0.00 0.00 0.00
20260506170233 -17 0.0 0.0 0.00 0.00 0.00
20260506165232 -17 0.0 0.0 0.00 0.00 0.00
20260506164229 -17 0.0 0.0 0.00 0.00 0.00
20260506163227 -17 0.0 0.0 0.00 0.00 0.00
20260506162225 -17 0.0 0.0 0.00 0.00 0.00
20260506161223 -17 0.0 0.0 0.00 0.00 0.00
20260506160220 -17 0.0 0.0 0.00 0.00 0.00
20260506155218 -17 0.0 0.0 0.00 0.00 0.00
20260506154236 -17 0.0 0.0 0.00 0.00 0.00
20260506153235 -17 0.0 0.0 0.00 0.00 0.00
20260506152212 -17 0.0 0.0 0.00 0.00 0.00
20260506151210 -17 0.0 0.0 0.00 0.00 0.00
20260506150209 -17 0.0 0.0 0.00 0.00 0.00
20260506145206 -17 0.0 0.0 0.00 0.00 0.00
20260506144205 -17 0.0 0.0 0.00 0.00 0.00
20260506143242 -17 0.0 0.0 0.00 0.00 0.00
20260506142200 -17 0.0 0.0 0.00 0.00 0.00
20260506141159 -17 0.0 0.0 0.00 0.00 0.00
20260506140216 -17 0.0 0.0 0.00 0.00 0.00
20260506135214 -17 0.0 0.0 0.00 0.00 0.00
20260506134152 -17 0.0 0.0 0.00 0.00 0.00
20260506133151 -17 0.0 0.0 0.00 0.03 0.00
20260506132151 -17 0.0 0.0 0.00 0.08 0.00
20260506131146 -17 0.0 0.0 0.00 0.10 0.00
20260506130145 -17 0.0 0.0 0.00 0.13 0.00
20260506125203 -17 0.0 0.0 0.00 0.13 0.00
20260506124202 -17 0.0 0.0 0.00 0.15 0.00